When you browse on this site, cookies collect data to enhance your experience and personalize the content and advertising you see.
Visit our Privacy Policy to learn more. By continuing to use the site, you agree to this use of cookies and data.
  • In Hungary
  • List of Countries
  • For 7 days
  • Water Temperature
  • Weather Map
  • News
  • Weather Widgets
  • user-avatar
    Login

    Hourly Weather Zatrube-Lebedy

    Today, 23 October, Wednesday

    Time Temperature Precipitation Wind Pressure Humidity
    00:00 +10°C° 0 mm 5 mps 750 mmHg 79%
    01:00 +10°C° 0 mm 5 mps 750 mmHg 78%
    02:00 +11°C° 0 mm 4 mps 750 mmHg 78%
    03:00 +9°C° 0 mm 5 mps 750 mmHg 80%
    04:00 +9°C° 0 mm 5 mps 749 mmHg 83%
    05:00 +9°C° 0 mm 5 mps 749 mmHg 86%
    06:00 +8°C° 0 mm 4 mps 750 mmHg 86%
    07:00 +8°C° 0 mm 4 mps 750 mmHg 85%
    08:00 +8°C° 0 mm 4 mps 750 mmHg 85%
    09:00 +8°C° 0 mm 4 mps 750 mmHg 84%
    10:00 +10°C° 0 mm 4 mps 751 mmHg 82%
    11:00 +10°C° 0 mm 4 mps 751 mmHg 81%
    12:00 +10°C° 0 mm 4 mps 751 mmHg 78%
    13:00 +11°C° 0 mm 4 mps 751 mmHg 76%
    14:00 +11°C° 0 mm 4 mps 752 mmHg 73%
    15:00 +10°C° 0 mm 4 mps 752 mmHg 76%
    16:00 +10°C° 0 mm 3 mps 752 mmHg 78%
    17:00 +10°C° 0 mm 2 mps 752 mmHg 80%
    18:00 +10°C° 0 mm 2 mps 752 mmHg 80%
    19:00 +9°C° 0 mm 2 mps 752 mmHg 81%
    20:00 +9°C° 0 mm 2 mps 752 mmHg 82%
    21:00 +9°C° 0 mm 2 mps 752 mmHg 83%
    22:00 +9°C° 0 mm 2 mps 752 mmHg 84%
    23:00 +9°C° 0 mm 2 mps 752 mmHg 86%

    Tomorrow, 24 October, Thursday

    Time Temperature Precipitation Wind Pressure Humidity
    00:00 +9°C° 0 mm 2 mps 752 mmHg 86%
    01:00 +9°C° 0 mm 2 mps 753 mmHg 86%
    02:00 +9°C° 0 mm 2 mps 753 mmHg 86%
    03:00 +8°C° 0 mm 2 mps 753 mmHg 88%
    04:00 +8°C° 0 mm 2 mps 753 mmHg 90%
    05:00 +7°C° 0 mm 2 mps 753 mmHg 92%
    06:00 +7°C° 0 mm 2 mps 753 mmHg 93%
    07:00 +6°C° 0 mm 2 mps 753 mmHg 93%
    08:00 +6°C° 0 mm 2 mps 753 mmHg 93%
    09:00 +7°C° 0 mm 2 mps 753 mmHg 89%
    10:00 +8°C° 0 mm 2 mps 753 mmHg 84%
    11:00 +9°C° 0 mm 2 mps 753 mmHg 79%
    12:00 +9°C° 0 mm 2 mps 753 mmHg 77%
    13:00 +10°C° 0 mm 2 mps 753 mmHg 75%
    14:00 +10°C° 0 mm 2 mps 753 mmHg 74%
    15:00 +9°C° 0 mm 2 mps 753 mmHg 79%
    16:00 +8°C° 0 mm 2 mps 753 mmHg 84%
    17:00 +7°C° 0 mm 2 mps 753 mmHg 90%
    18:00 +7°C° 0 mm 2 mps 753 mmHg 91%
    19:00 +7°C° 0 mm 2 mps 753 mmHg 93%
    20:00 +6°C° 0 mm 2 mps 753 mmHg 95%
    21:00 +6°C° 0 mm 2 mps 753 mmHg 95%
    22:00 +6°C° 0 mm 2 mps 753 mmHg 95%
    23:00 +6°C° 0 mm 2 mps 753 mmHg 95%

    Day after tomorrow, 25 October, Friday

    Time Temperature Precipitation Wind Pressure Humidity
    00:00 +6°C° 0 mm 2 mps 753 mmHg 95%
    01:00 +6°C° 0 mm 2 mps 752 mmHg 95%
    02:00 +6°C° 0 mm 2 mps 752 mmHg 95%
    03:00 +5°C° 0 mm 3 mps 752 mmHg 94%
    04:00 +5°C° 0 mm 3 mps 751 mmHg 94%
    05:00 +5°C° 0 mm 3 mps 751 mmHg 93%
    06:00 +6°C° 0 mm 4 mps 750 mmHg 92%
    07:00 +6°C° 0 mm 4 mps 750 mmHg 91%
    08:00 +6°C° 0 mm 4 mps 749 mmHg 90%
    09:00 +8°C° 0 mm 5 mps 749 mmHg 86%
    10:00 +9°C° 0 mm 5 mps 748 mmHg 83%
    11:00 +10°C° 0 mm 5 mps 748 mmHg 79%
    12:00 +11°C° 0 mm 6 mps 747 mmHg 78%
    13:00 +13°C° 0 mm 6 mps 747 mmHg 77%
    14:00 +14°C° 0 mm 6 mps 747 mmHg 76%
    15:00 +13°C° 0 mm 5 mps 747 mmHg 79%
    16:00 +13°C° 0 mm 5 mps 746 mmHg 82%
    17:00 +12°C° 0 mm 5 mps 746 mmHg 86%
    18:00 +12°C° 0 mm 5 mps 747 mmHg 83%
    19:00 +13°C° 0 mm 5 mps 747 mmHg 80%
    20:00 +13°C° 0 mm 5 mps 748 mmHg 77%
    21:00 +10°C° 0 mm 5 mps 748 mmHg 79%
    22:00 +9°C° 0 mm 5 mps 748 mmHg 81%
    23:00 +8°C° 0 mm 4 mps 749 mmHg 82%

    26 October, Saturday

    Time Temperature Precipitation Wind Pressure Humidity
    00:00 +8°C° 0 mm 4 mps 749 mmHg 83%
    01:00 +8°C° 0 mm 4 mps 749 mmHg 84%
    02:00 +7°C° 0 mm 4 mps 749 mmHg 85%
    03:00 +7°C° 0 mm 4 mps 749 mmHg 82%
    04:00 +7°C° 0 mm 4 mps 749 mmHg 80%
    05:00 +7°C° 0 mm 4 mps 749 mmHg 78%
    06:00 +7°C° 0 mm 4 mps 749 mmHg 81%
    07:00 +7°C° 0 mm 4 mps 749 mmHg 84%
    08:00 +7°C° 0 mm 4 mps 749 mmHg 87%
    09:00 +8°C° 0 mm 4 mps 749 mmHg 83%
    10:00 +9°C° 0 mm 5 mps 749 mmHg 79%
    11:00 +9°C° 0 mm 5 mps 748 mmHg 76%
    12:00 +10°C° 0 mm 5 mps 747 mmHg 74%
    13:00 +10°C° 0 mm 6 mps 746 mmHg 72%
    14:00 +11°C° 0 mm 6 mps 745 mmHg 70%
    15:00 +11°C° 0 mm 6 mps 744 mmHg 71%
    16:00 +11°C° 0 mm 6 mps 743 mmHg 72%
    17:00 +11°C° 0 mm 7 mps 742 mmHg 73%
    18:00 +11°C° 0.2 mm 7 mps 742 mmHg 75%
    19:00 +11°C° 0.2 mm 7 mps 741 mmHg 77%
    20:00 +11°C° 0.2 mm 8 mps 741 mmHg 80%
    21:00 +11°C° 0.2 mm 7 mps 741 mmHg 81%
    22:00 +11°C° 0.2 mm 7 mps 740 mmHg 82%
    23:00 +11°C° 0.2 mm 7 mps 740 mmHg 83%

    27 October, Sunday

    Time Temperature Precipitation Wind Pressure Humidity
    00:00 +10°C° 0.2 mm 6 mps 740 mmHg 81%
    01:00 +9°C° 0.2 mm 6 mps 741 mmHg 78%
    02:00 +8°C° 0.2 mm 6 mps 741 mmHg 76%
    03:00 +8°C° 0 mm 6 mps 741 mmHg 76%
    04:00 +7°C° 0 mm 5 mps 741 mmHg 76%
    05:00 +6°C° 0 mm 5 mps 741 mmHg 75%
    06:00 +6°C° 0 mm 5 mps 741 mmHg 76%
    07:00 +6°C° 0 mm 5 mps 740 mmHg 76%
    08:00 +6°C° 0 mm 5 mps 740 mmHg 76%
    09:00 +7°C° 0 mm 5 mps 740 mmHg 73%
    10:00 +7°C° 0 mm 5 mps 740 mmHg 71%
    11:00 +8°C° 0 mm 5 mps 740 mmHg 68%
    12:00 +8°C° 0 mm 5 mps 740 mmHg 66%
    13:00 +8°C° 0 mm 5 mps 740 mmHg 65%
    14:00 +8°C° 0 mm 5 mps 740 mmHg 63%
    15:00 +7°C° 0 mm 5 mps 740 mmHg 67%
    16:00 +6°C° 0 mm 4 mps 740 mmHg 71%
    17:00 +5°C° 0 mm 4 mps 741 mmHg 75%
    18:00 +5°C° 0 mm 4 mps 741 mmHg 76%
    19:00 +4°C° 0 mm 4 mps 741 mmHg 77%
    20:00 +3°C° 0 mm 5 mps 742 mmHg 78%
    21:00 +3°C° 0 mm 5 mps 742 mmHg 79%
    22:00 +3°C° 0 mm 5 mps 742 mmHg 81%
    23:00 +3°C° 0 mm 5 mps 742 mmHg 82%

    28 October, Monday

    Time Temperature Precipitation Wind Pressure Humidity
    00:00 +4°C° 0 mm 4 mps 742 mmHg 83%
    01:00 +4°C° 0 mm 4 mps 742 mmHg 84%
    02:00 +4°C° 0 mm 4 mps 742 mmHg 85%
    03:00 +3°C° 0 mm 4 mps 742 mmHg 87%
    04:00 +3°C° 0 mm 4 mps 742 mmHg 89%
    05:00 +1°C° 0 mm 4 mps 742 mmHg 91%
    06:00 +2°C° 0 mm 3 mps 742 mmHg 92%
    07:00 +2°C° 0 mm 3 mps 742 mmHg 93%
    08:00 +2°C° 0 mm 3 mps 742 mmHg 94%
    09:00 +4°C° 0 mm 2 mps 742 mmHg 90%
    10:00 +5°C° 0 mm 2 mps 742 mmHg 86%
    11:00 +7°C° 0 mm 1 mps 742 mmHg 82%
    12:00 +7°C° 0.8 mm 1 mps 742 mmHg 85%
    13:00 +7°C° 0.8 mm 1 mps 742 mmHg 87%
    14:00 +5°C° 0.8 mm 2 mps 742 mmHg 89%
    15:00 +5°C° 0.8 mm 2 mps 742 mmHg 89%
    16:00 +3°C° 0.8 mm 3 mps 742 mmHg 88%
    17:00 +1°C° 0.8 mm 4 mps 742 mmHg 87%
    18:00 +1°C° 0 mm 4 mps 743 mmHg 86%
    19:00 0°C° 0 mm 4 mps 743 mmHg 84%
    20:00 +1°C° 0 mm 3 mps 744 mmHg 82%
    21:00 0°C° 0.1 mm 4 mps 744 mmHg 85%
    22:00 -1°C° 0.1 mm 4 mps 745 mmHg 88%
    23:00 -1°C° 0.1 mm 4 mps 745 mmHg 91%

    29 October, Tuesday

    Time Temperature Precipitation Wind Pressure Humidity
    00:00 -1°C° 0.2 mm 4 mps 745 mmHg 91%
    01:00 -2°C° 0.2 mm 4 mps 746 mmHg 91%
    02:00 -2°C° 0.2 mm 4 mps 746 mmHg 91%
    03:00 -2°C° 0.3 mm 4 mps 746 mmHg 90%
    04:00 -3°C° 0.3 mm 4 mps 747 mmHg 89%
    05:00 -3°C° 0.3 mm 4 mps 747 mmHg 88%
    06:00 -3°C° 0.1 mm 4 mps 747 mmHg 88%
    07:00 -3°C° 0.1 mm 4 mps 748 mmHg 89%
    08:00 -3°C° 0.1 mm 4 mps 748 mmHg 89%
    09:00 -4°C° 0.2 mm 5 mps 748 mmHg 85%
    10:00 -2°C° 0.2 mm 5 mps 749 mmHg 81%
    11:00 -1°C° 0.2 mm 5 mps 749 mmHg 77%
    12:00 -1°C° 0.1 mm 5 mps 750 mmHg 74%
    13:00 -1°C° 0.1 mm 5 mps 750 mmHg 72%
    14:00 -2°C° 0.1 mm 6 mps 751 mmHg 69%
    15:00 -1°C° 0.1 mm 5 mps 751 mmHg 73%
    16:00 -2°C° 0.1 mm 5 mps 751 mmHg 77%
    17:00 -4°C° 0.1 mm 5 mps 752 mmHg 81%
    18:00 -4°C° 0.1 mm 5 mps 752 mmHg 84%
    19:00 -4°C° 0.1 mm 5 mps 753 mmHg 86%
    20:00 -3°C° 0.1 mm 4 mps 754 mmHg 89%
    21:00 -3°C° 0.1 mm 4 mps 754 mmHg 88%
    22:00 -3°C° 0.1 mm 4 mps 755 mmHg 87%
    23:00 -4°C° 0.1 mm 4 mps 755 mmHg 86%
    Show more